Terminal Aerodrome Forecast
Issued by NWS Billings, MT

Home | Current Version | Previous Version | Graphics & Text | Print | Product List | Glossary On
Versions: 1 2 3 4 5 6 7 8 9 10 11 12 13 14 15 16 17 18 19 20 21 22 23 24 25 26 27 28 29 30 31 32 33 34 35 36 37 38 39 40 41 42 43 44
000
FTUS45 KBYZ 270321 AAB
TAFMLS
TAF AMD
KMLS 270321Z 2703/2724 09004KT 3SM -SN BR BKN060 OVC080
     FM270600 09009KT 6SM -SN BR BKN070 OVC080
     FM271200 10010KT P6SM BKN080
     FM271800 24007KT P6SM BKN100=

USA.gov is the U.S. government's official web portal to all federal, state and local government web resources and services.